Time,TemperatureF,DewpointF,PressureIn,WindDirection,WindDirectionDegrees,WindSpeedMPH,WindSpeedGustMPH,Humidity,HourlyPrecipIn,Conditions,Clouds,dailyrainin,SoftwareType,DateUTC
2013-01-23 00:03:00,55.4,35.0,29.91,NNE,22,0.0,0.0,46,0.00,,,0.00,VWS V14.01,2013-01-23 08:03:00,
2013-01-23 00:08:00,55.2,34.8,29.91,SSW,202,0.0,2.2,46,0.00,,,0.00,VWS V14.01,2013-01-23 08:08:00,
2013-01-23 00:13:00,55.2,34.8,29.91,South,180,0.0,0.0,46,0.00,,,0.00,VWS V14.01,2013-01-23 08:13:00,
2013-01-23 00:18:00,55.0,34.7,29.91,South,180,0.0,0.0,46,0.00,,,0.00,VWS V14.01,2013-01-23 08:18:00,
2013-01-23 00:23:00,55.0,35.2,29.91,NNE,22,0.0,2.2,47,0.00,,,0.00,VWS V14.01,2013-01-23 08:23:00,
2013-01-23 00:28:00,55.2,35.4,29.88,NNE,22,0.0,0.0,47,0.00,,,0.00,VWS V14.01,2013-01-23 08:28:00,
2013-01-23 00:34:00,55.2,35.4,29.88,NNE,22,0.0,0.0,47,0.00,,,0.00,VWS V14.01,2013-01-23 08:34:00,
2013-01-23 00:39:00,55.2,35.4,29.88,NNE,22,0.0,0.0,47,0.00,,,0.00,VWS V14.01,2013-01-23 08:39:00,
2013-01-23 00:44:00,55.2,35.4,29.88,NNE,22,0.0,0.0,47,0.00,,,0.00,VWS V14.01,2013-01-23 08:44:00,
2013-01-23 00:49:00,55.0,35.2,29.88,NNE,22,0.0,0.0,47,0.00,,,0.00,VWS V14.01,2013-01-23 08:49:00,
2013-01-23 00:54:00,55.0,35.2,29.88,ESE,112,3.1,3.1,47,0.00,,,0.00,VWS V14.01,2013-01-23 08:54:00,
2013-01-23 00:59:00,55.0,34.7,29.88,NNE,22,0.0,3.1,46,0.00,,,0.00,VWS V14.01,2013-01-23 08:59:00,
2013-01-23 01:04:00,55.0,34.7,29.88,NNE,22,0.0,0.0,46,0.00,,,0.00,VWS V14.01,2013-01-23 09:04:00,
2013-01-23 01:09:00,54.9,34.5,29.88,NNE,22,0.0,0.0,46,0.00,,,0.00,VWS V14.01,2013-01-23 09:09:00,
2013-01-23 01:14:00,54.7,34.9,29.88,North,0,0.0,0.0,47,0.00,,,0.00,VWS V14.01,2013-01-23 09:14:00,
2013-01-23 01:19:00,54.7,34.9,29.88,North,0,0.0,0.0,47,0.00,,,0.00,VWS V14.01,2013-01-23 09:19:00,
2013-01-23 01:25:00,54.9,35.0,29.88,North,0,3.1,3.1,47,0.00,,,0.00,VWS V14.01,2013-01-23 09:25:00,
2013-01-23 01:30:00,54.5,35.2,29.88,North,0,3.6,4.5,48,0.00,,,0.00,VWS V14.01,2013-01-23 09:30:00,
2013-01-23 01:35:00,54.3,36.1,29.88,North,0,3.1,3.1,50,0.00,,,0.00,VWS V14.01,2013-01-23 09:35:00,
2013-01-23 01:40:00,54.0,36.3,29.88,NNW,338,2.2,4.0,51,0.00,,,0.00,VWS V14.01,2013-01-23 09:40:00,
2013-01-23 01:45:00,53.8,36.1,29.88,NNE,22,0.0,0.0,51,0.00,,,0.00,VWS V14.01,2013-01-23 09:45:00,
2013-01-23 01:50:00,53.8,36.1,29.88,North,0,0.0,3.6,51,0.00,,,0.00,VWS V14.01,2013-01-23 09:50:00,
2013-01-23 01:56:00,53.4,35.8,29.88,NNE,22,2.7,3.1,51,0.00,,,0.00,VWS V14.01,2013-01-23 09:56:00,
2013-01-23 02:01:00,53.4,35.8,29.88,ENE,68,0.0,3.1,51,0.00,,,0.00,VWS V14.01,2013-01-23 10:01:00,
2013-01-23 02:06:00,53.4,36.2,29.88,NE,45,2.2,2.2,52,0.00,,,0.00,VWS V14.01,2013-01-23 10:06:00,
2013-01-23 02:11:00,53.4,36.2,29.88,NE,45,0.0,0.0,52,0.00,,,0.00,VWS V14.01,2013-01-23 10:11:00,
2013-01-23 02:16:00,53.4,36.2,29.88,NE,45,0.0,0.0,52,0.00,,,0.00,VWS V14.01,2013-01-23 10:16:00,
2013-01-23 02:21:00,53.4,36.2,29.88,North,0,3.1,3.6,52,0.00,,,0.00,VWS V14.01,2013-01-23 10:21:00,
2013-01-23 02:26:00,53.4,35.8,29.88,NNW,338,2.2,2.2,51,0.00,,,0.00,VWS V14.01,2013-01-23 10:26:00,
2013-01-23 02:31:00,53.4,35.3,29.88,North,0,0.0,3.1,50,0.00,,,0.00,VWS V14.01,2013-01-23 10:31:00,
2013-01-23 02:37:00,53.8,35.1,29.88,North,0,0.0,0.0,49,0.00,,,0.00,VWS V14.01,2013-01-23 10:37:00,
2013-01-23 02:42:00,53.8,35.6,29.88,ESE,112,0.0,2.7,50,0.00,,,0.00,VWS V14.01,2013-01-23 10:42:00,
2013-01-23 02:47:00,53.8,35.6,29.88,NNE,22,0.0,4.0,50,0.00,,,0.00,VWS V14.01,2013-01-23 10:47:00,
2013-01-23 02:52:00,53.8,35.6,29.88,North,0,2.7,2.7,50,0.00,,,0.00,VWS V14.01,2013-01-23 10:52:00,
2013-01-23 02:57:00,53.8,36.1,29.88,NNW,338,3.6,3.6,51,0.00,,,0.00,VWS V14.01,2013-01-23 10:57:00,
2013-01-23 03:02:00,53.6,35.9,29.88,NE,45,0.0,0.0,51,0.00,,,0.00,VWS V14.01,2013-01-23 11:02:00,
2013-01-23 03:07:00,53.6,36.9,29.88,NNE,22,2.2,2.7,53,0.00,,,0.00,VWS V14.01,2013-01-23 11:07:00,
2013-01-23 03:12:00,53.4,36.7,29.88,NNE,22,0.0,0.0,53,0.00,,,0.00,VWS V14.01,2013-01-23 11:12:00,
2013-01-23 03:17:00,53.2,36.6,29.85,North,0,0.0,2.7,53,0.00,,,0.00,VWS V14.01,2013-01-23 11:17:00,
2013-01-23 03:22:00,53.2,36.1,29.85,NNE,22,4.0,4.0,52,0.00,,,0.00,VWS V14.01,2013-01-23 11:22:00,
2013-01-23 03:27:00,53.2,35.6,29.85,North,0,0.0,2.2,51,0.00,,,0.00,VWS V14.01,2013-01-23 11:27:00,
2013-01-23 03:33:00,53.1,35.9,29.85,NNW,338,3.1,3.1,52,0.00,,,0.00,VWS V14.01,2013-01-23 11:33:00,
2013-01-23 03:38:00,53.1,35.9,29.85,ENE,68,0.0,0.0,52,0.00,,,0.00,VWS V14.01,2013-01-23 11:38:00,
2013-01-23 03:43:00,53.1,35.4,29.85,ENE,68,0.0,0.0,51,0.00,,,0.00,VWS V14.01,2013-01-23 11:43:00,
2013-01-23 03:48:00,53.4,36.2,29.85,ENE,68,0.0,0.0,52,0.00,,,0.00,VWS V14.01,2013-01-23 11:48:00,
2013-01-23 03:53:00,53.8,35.6,29.85,ENE,68,0.0,0.0,50,0.00,,,0.00,VWS V14.01,2013-01-23 11:53:00,
2013-01-23 03:58:00,54.1,36.4,29.85,East,90,0.0,0.0,51,0.00,,,0.00,VWS V14.01,2013-01-23 11:58:00,
2013-01-23 04:03:00,54.3,36.1,29.85,East,90,0.0,0.0,50,0.00,,,0.00,VWS V14.01,2013-01-23 12:03:00,
2013-01-23 04:09:00,54.5,36.3,29.85,East,90,0.0,0.0,50,0.00,,,0.00,VWS V14.01,2013-01-23 12:09:00,
2013-01-23 04:14:00,54.3,36.1,29.85,NNE,22,0.0,0.0,50,0.00,,,0.00,VWS V14.01,2013-01-23 12:14:00,
2013-01-23 04:19:00,54.0,36.3,29.85,North,0,2.7,3.1,51,0.00,,,0.00,VWS V14.01,2013-01-23 12:19:00,
2013-01-23 04:24:00,53.6,36.4,29.85,NNW,338,0.0,2.7,52,0.00,,,0.00,VWS V14.01,2013-01-23 12:24:00,
2013-01-23 04:29:00,53.6,36.4,29.85,NNW,338,0.0,2.2,52,0.00,,,0.00,VWS V14.01,2013-01-23 12:29:00,
2013-01-23 04:35:00,53.8,36.6,29.85,ENE,68,0.0,0.0,52,0.00,,,0.00,VWS V14.01,2013-01-23 12:35:00,
2013-01-23 04:40:00,53.8,37.1,29.85,ENE,68,0.0,0.0,53,0.00,,,0.00,VWS V14.01,2013-01-23 12:40:00,
2013-01-23 04:45:00,54.0,37.2,29.85,ENE,68,0.0,0.0,53,0.00,,,0.00,VWS V14.01,2013-01-23 12:45:00,
2013-01-23 04:51:00,54.1,36.9,29.85,North,0,0.0,0.0,52,0.00,,,0.00,VWS V14.01,2013-01-23 12:51:00,
2013-01-23 04:56:00,53.8,37.1,29.85,North,0,0.0,0.0,53,0.00,,,0.00,VWS V14.01,2013-01-23 12:56:00,
2013-01-23 05:02:00,53.6,36.9,29.85,North,0,4.0,4.0,53,0.00,,,0.00,VWS V14.01,2013-01-23 13:02:00,
2013-01-23 05:07:00,53.1,36.9,29.85,North,0,3.6,3.6,54,0.00,,,0.00,VWS V14.01,2013-01-23 13:07:00,
2013-01-23 05:13:00,52.9,36.2,29.82,North,0,0.0,0.0,53,0.00,,,0.00,VWS V14.01,2013-01-23 13:13:00,
2013-01-23 05:18:00,52.9,36.2,29.82,North,0,0.0,0.0,53,0.00,,,0.00,VWS V14.01,2013-01-23 13:18:00,
2013-01-23 05:23:00,52.9,36.7,29.82,NNE,22,0.0,0.0,54,0.00,,,0.00,VWS V14.01,2013-01-23 13:23:00,
2013-01-23 05:28:00,52.9,36.2,29.82,ENE,68,0.0,0.0,53,0.00,,,0.00,VWS V14.01,2013-01-23 13:28:00,
2013-01-23 05:33:00,53.1,35.9,29.82,ESE,112,0.0,0.0,52,0.00,,,0.00,VWS V14.01,2013-01-23 13:33:00,
2013-01-23 05:38:00,53.1,35.4,29.82,ESE,112,0.0,0.0,51,0.00,,,0.00,VWS V14.01,2013-01-23 13:38:00,
2013-01-23 05:43:00,53.2,35.6,29.82,ESE,112,0.0,0.0,51,0.00,,,0.00,VWS V14.01,2013-01-23 13:43:00,
2013-01-23 05:48:00,53.4,35.8,29.82,ESE,112,0.0,0.0,51,0.00,,,0.00,VWS V14.01,2013-01-23 13:48:00,
2013-01-23 05:53:00,54.1,35.9,29.82,ESE,112,0.0,0.0,50,0.00,,,0.00,VWS V14.01,2013-01-23 13:53:00,
2013-01-23 05:58:00,54.3,35.6,29.82,ESE,112,0.0,0.0,49,0.00,,,0.00,VWS V14.01,2013-01-23 13:58:00,
2013-01-23 06:03:00,54.3,35.6,29.82,North,0,0.0,2.2,49,0.00,,,0.00,VWS V14.01,2013-01-23 14:03:00,
2013-01-23 06:08:00,54.1,35.9,29.82,North,0,0.0,0.0,50,0.00,,,0.00,VWS V14.01,2013-01-23 14:08:00,
2013-01-23 06:13:00,53.8,35.6,29.85,NNW,338,0.0,0.0,50,0.00,,,0.00,VWS V14.01,2013-01-23 14:13:00,
2013-01-23 06:18:00,53.8,36.1,29.85,North,0,3.1,3.1,51,0.00,,,0.00,VWS V14.01,2013-01-23 14:18:00,
2013-01-23 06:24:00,53.8,36.6,29.85,North,0,3.1,3.6,52,0.00,,,0.00,VWS V14.01,2013-01-23 14:24:00,
2013-01-23 06:29:00,53.8,36.6,29.85,North,0,2.7,3.1,52,0.00,,,0.00,VWS V14.01,2013-01-23 14:29:00,
2013-01-23 06:34:00,53.4,36.2,29.85,NNW,338,2.2,3.1,52,0.00,,,0.00,VWS V14.01,2013-01-23 14:34:00,
2013-01-23 06:39:00,53.2,35.6,29.85,North,0,2.7,4.0,51,0.00,,,0.00,VWS V14.01,2013-01-23 14:39:00,
2013-01-23 06:44:00,53.2,35.6,29.85,NE,45,0.0,0.0,51,0.00,,,0.00,VWS V14.01,2013-01-23 14:44:00,
2013-01-23 06:49:00,53.2,35.6,29.85,North,0,0.0,2.7,51,0.00,,,0.00,VWS V14.01,2013-01-23 14:49:00,
2013-01-23 06:54:00,53.2,35.6,29.85,North,0,2.7,2.7,51,0.00,,,0.00,VWS V14.01,2013-01-23 14:54:00,
2013-01-23 06:59:00,53.2,35.1,29.85,NE,45,0.0,0.0,50,0.00,,,0.00,VWS V14.01,2013-01-23 14:59:00,
2013-01-23 07:04:00,53.2,35.1,29.85,NE,45,0.0,0.0,50,0.00,,,0.00,VWS V14.01,2013-01-23 15:04:00,
2013-01-23 07:09:00,53.2,35.1,29.85,NNW,338,2.7,4.0,50,0.00,,,0.00,VWS V14.01,2013-01-23 15:09:00,
2013-01-23 07:14:00,53.2,35.1,29.85,NNE,22,3.1,3.1,50,0.00,,,0.00,VWS V14.01,2013-01-23 15:14:00,
2013-01-23 07:19:00,53.4,35.3,29.85,North,0,2.2,2.7,50,0.00,,,0.00,VWS V14.01,2013-01-23 15:19:00,
2013-01-23 07:24:00,53.4,35.3,29.85,North,0,2.2,3.6,50,0.00,,,0.00,VWS V14.01,2013-01-23 15:24:00,
2013-01-23 07:29:00,53.6,34.9,29.85,NNE,22,0.0,3.1,49,0.00,,,0.00,VWS V14.01,2013-01-23 15:29:00,
2013-01-23 07:34:00,53.6,34.9,29.85,NNE,22,2.7,2.7,49,0.00,,,0.00,VWS V14.01,2013-01-23 15:34:00,
2013-01-23 07:39:00,54.3,35.1,29.85,ESE,112,0.0,4.0,48,0.00,,,0.00,VWS V14.01,2013-01-23 15:39:00,
2013-01-23 07:44:00,54.7,35.4,29.85,ESE,112,2.2,2.2,48,0.00,,,0.00,VWS V14.01,2013-01-23 15:44:00,
2013-01-23 07:49:00,54.7,34.9,29.85,NNW,338,3.6,3.6,47,0.00,,,0.00,VWS V14.01,2013-01-23 15:49:00,
2013-01-23 07:54:00,54.7,35.4,29.85,NNW,338,2.2,2.2,48,0.00,,,0.00,VWS V14.01,2013-01-23 15:54:00,
2013-01-23 07:59:00,54.7,35.4,29.85,North,0,3.1,3.1,48,0.00,,,0.00,VWS V14.01,2013-01-23 15:59:00,
2013-01-23 08:04:00,54.9,35.6,29.85,North,0,4.0,4.0,48,0.00,,,0.00,VWS V14.01,2013-01-23 16:04:00,
2013-01-23 08:09:00,54.9,35.6,29.85,North,0,0.0,0.0,48,0.00,,,0.00,VWS V14.01,2013-01-23 16:09:00,
2013-01-23 08:14:00,54.9,35.6,29.85,North,0,0.0,0.0,48,0.00,,,0.00,VWS V14.01,2013-01-23 16:14:00,
2013-01-23 08:19:00,54.9,36.1,29.85,North,0,0.0,0.0,49,0.00,,,0.00,VWS V14.01,2013-01-23 16:19:00,
2013-01-23 08:24:00,54.7,36.9,29.85,NNW,338,4.0,4.0,51,0.00,,,0.00,VWS V14.01,2013-01-23 16:24:00,
2013-01-23 08:29:00,54.1,37.9,29.88,North,0,3.6,3.6,54,0.00,,,0.00,VWS V14.01,2013-01-23 16:29:00,
2013-01-23 08:34:00,53.8,37.1,29.88,WNW,292,4.0,5.4,53,0.00,,,0.00,VWS V14.01,2013-01-23 16:34:00,
2013-01-23 08:39:00,53.4,36.2,29.88,NNW,338,3.1,4.9,52,0.00,,,0.00,VWS V14.01,2013-01-23 16:39:00,
2013-01-23 08:44:00,53.6,36.4,29.88,NNW,338,3.6,4.5,52,0.00,,,0.00,VWS V14.01,2013-01-23 16:44:00,
2013-01-23 08:49:00,53.4,36.7,29.88,NNW,338,0.0,3.1,53,0.00,,,0.00,VWS V14.01,2013-01-23 16:49:00,
2013-01-23 08:54:00,53.4,36.2,29.88,NNW,338,4.0,4.0,52,0.00,,,0.00,VWS V14.01,2013-01-23 16:54:00,
2013-01-23 09:00:00,53.2,36.1,29.88,NNW,338,3.1,3.6,52,0.00,,,0.00,VWS V14.01,2013-01-23 17:00:00,
2013-01-23 09:05:00,53.2,36.1,29.88,North,0,3.1,3.1,52,0.00,,,0.00,VWS V14.01,2013-01-23 17:05:00,
2013-01-23 09:10:00,53.4,36.2,29.88,NNE,22,0.0,0.0,52,0.00,,,0.00,VWS V14.01,2013-01-23 17:10:00,
2013-01-23 09:15:00,53.8,36.6,29.88,ENE,68,0.0,0.0,52,0.00,,,0.00,VWS V14.01,2013-01-23 17:15:00,
2013-01-23 09:20:00,53.6,36.4,29.88,ESE,112,0.0,2.2,52,0.00,,,0.00,VWS V14.01,2013-01-23 17:20:00,
2013-01-23 09:25:00,53.6,36.4,29.88,NNE,22,2.2,2.7,52,0.00,,,0.00,VWS V14.01,2013-01-23 17:25:00,
2013-01-23 09:30:00,53.6,36.4,29.88,North,0,4.0,5.4,52,0.00,,,0.00,VWS V14.01,2013-01-23 17:30:00,
2013-01-23 09:35:00,53.6,36.4,29.88,NNW,338,2.7,2.7,52,0.00,,,0.00,VWS V14.01,2013-01-23 17:35:00,
2013-01-23 09:40:00,53.8,36.1,29.88,NNE,22,3.6,3.6,51,0.00,,,0.00,VWS V14.01,2013-01-23 17:40:00,
2013-01-23 09:45:00,53.6,35.9,29.91,North,0,2.7,2.7,51,0.00,,,0.00,VWS V14.01,2013-01-23 17:45:00,
2013-01-23 09:50:00,53.8,36.1,29.91,North,0,2.7,3.1,51,0.00,,,0.00,VWS V14.01,2013-01-23 17:50:00,
2013-01-23 09:55:00,54.0,36.3,29.91,North,0,0.0,0.0,51,0.00,,,0.00,VWS V14.01,2013-01-23 17:55:00,
2013-01-23 10:00:00,54.1,36.4,29.91,North,0,0.0,0.0,51,0.00,,,0.00,VWS V14.01,2013-01-23 18:00:00,
2013-01-23 10:06:00,54.7,36.4,29.91,NNW,338,3.1,3.6,50,0.00,,,0.00,VWS V14.01,2013-01-23 18:06:00,
2013-01-23 10:11:00,54.7,36.4,29.91,North,0,3.1,4.0,50,0.00,,,0.00,VWS V14.01,2013-01-23 18:11:00,
2013-01-23 10:16:00,54.5,36.3,29.91,NNW,338,3.6,3.6,50,0.00,,,0.00,VWS V14.01,2013-01-23 18:16:00,
2013-01-23 10:21:00,54.1,36.4,29.91,NNW,338,2.7,3.6,51,0.00,,,0.00,VWS V14.01,2013-01-23 18:21:00,
2013-01-23 10:26:00,54.0,36.8,29.91,NNW,338,2.7,4.0,52,0.00,,,0.00,VWS V14.01,2013-01-23 18:26:00,
2013-01-23 10:31:00,54.0,36.8,29.91,North,0,2.2,2.2,52,0.00,,,0.00,VWS V14.01,2013-01-23 18:31:00,
2013-01-23 10:36:00,53.8,36.6,29.91,North,0,3.6,3.6,52,0.00,,,0.00,VWS V14.01,2013-01-23 18:36:00,
2013-01-23 10:41:00,54.0,37.2,29.91,NNW,338,3.6,3.6,53,0.00,,,0.00,VWS V14.01,2013-01-23 18:41:00,
2013-01-23 10:46:00,53.8,37.1,29.91,North,0,3.1,3.1,53,0.00,,,0.00,VWS V14.01,2013-01-23 18:46:00,
2013-01-23 10:51:00,53.6,37.4,29.91,NNW,338,2.7,2.7,54,0.00,,,0.00,VWS V14.01,2013-01-23 18:51:00,
2013-01-23 10:56:00,53.6,37.4,29.91,NNW,338,0.0,0.0,54,0.00,,,0.00,VWS V14.01,2013-01-23 18:56:00,
2013-01-23 11:02:00,53.6,37.4,29.91,NNW,338,2.2,3.1,54,0.00,,,0.00,VWS V14.01,2013-01-23 19:02:00,
2013-01-23 11:07:00,53.6,37.4,29.91,NNW,338,2.7,3.6,54,0.00,,,0.00,VWS V14.01,2013-01-23 19:07:00,
2013-01-23 11:12:00,53.8,37.5,29.91,North,0,3.6,4.0,54,0.00,,,0.00,VWS V14.01,2013-01-23 19:12:00,
2013-01-23 11:17:00,53.8,38.0,29.91,ENE,68,2.7,3.1,55,0.00,,,0.00,VWS V14.01,2013-01-23 19:17:00,
2013-01-23 11:22:00,53.6,37.4,29.91,NW,315,5.8,5.8,54,0.00,,,0.00,VWS V14.01,2013-01-23 19:22:00,
2013-01-23 11:27:00,53.8,37.5,29.91,North,0,0.0,3.1,54,0.00,,,0.00,VWS V14.01,2013-01-23 19:27:00,
2013-01-23 11:32:00,54.0,37.2,29.91,North,0,0.0,0.0,53,0.00,,,0.00,VWS V14.01,2013-01-23 19:32:00,
2013-01-23 11:37:00,54.0,36.8,29.91,NNW,338,3.6,3.6,52,0.00,,,0.00,VWS V14.01,2013-01-23 19:37:00,
2013-01-23 11:42:00,54.0,37.2,29.91,NNE,22,2.7,3.6,53,0.00,,,0.00,VWS V14.01,2013-01-23 19:42:00,
2013-01-23 11:47:00,54.0,37.2,29.91,WNW,292,4.9,4.9,53,0.00,,,0.00,VWS V14.01,2013-01-23 19:47:00,
2013-01-23 11:52:00,53.8,37.5,29.91,NNW,338,4.5,5.4,54,0.00,,,0.00,VWS V14.01,2013-01-23 19:52:00,
2013-01-23 11:58:00,54.0,38.2,29.91,WNW,292,3.1,4.9,55,0.00,,,0.00,VWS V14.01,2013-01-23 19:58:00,
2013-01-23 12:03:00,53.8,37.5,29.91,NNE,22,4.9,4.9,54,0.00,,,0.00,VWS V14.01,2013-01-23 20:03:00,
2013-01-23 12:08:00,53.8,38.0,29.91,NNW,338,3.6,3.6,55,0.00,,,0.00,VWS V14.01,2013-01-23 20:08:00,
2013-01-23 12:13:00,53.8,38.5,29.91,NNE,22,3.6,4.0,56,0.00,,,0.00,VWS V14.01,2013-01-23 20:13:00,
2013-01-23 12:18:00,53.6,38.8,29.91,NNW,338,2.7,3.6,57,0.00,,,0.00,VWS V14.01,2013-01-23 20:18:00,
2013-01-23 12:23:00,53.8,38.5,29.91,NNW,338,4.0,4.0,56,0.00,,,0.00,VWS V14.01,2013-01-23 20:23:00,
2013-01-23 12:28:00,53.6,38.3,29.88,North,0,2.7,2.7,56,0.00,,,0.00,VWS V14.01,2013-01-23 20:28:00,
2013-01-23 12:33:00,53.6,38.3,29.88,NE,45,0.0,2.2,56,0.00,,,0.00,VWS V14.01,2013-01-23 20:33:00,
2013-01-23 12:38:00,53.8,38.9,29.88,NNE,22,2.2,2.2,57,0.00,,,0.00,VWS V14.01,2013-01-23 20:38:00,
2013-01-23 12:43:00,53.8,39.4,29.91,NNE,22,0.0,0.0,58,0.00,,,0.00,VWS V14.01,2013-01-23 20:43:00,
2013-01-23 12:48:00,53.6,39.2,29.91,NNE,22,4.0,4.9,58,0.00,,,0.00,VWS V14.01,2013-01-23 20:48:00,
2013-01-23 12:54:00,53.2,39.7,29.91,NNW,338,4.0,4.9,60,0.00,,,0.00,VWS V14.01,2013-01-23 20:54:00,
2013-01-23 12:59:00,53.2,39.7,29.91,North,0,2.7,4.0,60,0.00,,,0.00,VWS V14.01,2013-01-23 20:59:00,
2013-01-23 13:04:00,53.1,40.4,29.91,North,0,2.7,3.6,62,0.00,,,0.00,VWS V14.01,2013-01-23 21:04:00,
2013-01-23 13:09:00,53.1,40.0,29.91,NNW,338,2.7,2.7,61,0.00,,,0.00,VWS V14.01,2013-01-23 21:09:00,
2013-01-23 13:14:00,53.2,40.2,29.91,NNW,338,0.0,2.2,61,0.00,,,0.00,VWS V14.01,2013-01-23 21:14:00,
2013-01-23 13:19:00,53.2,40.2,29.91,North,0,2.7,2.7,61,0.00,,,0.00,VWS V14.01,2013-01-23 21:19:00,
2013-01-23 13:24:00,53.2,40.2,29.91,NNW,338,0.0,3.1,61,0.00,,,0.00,VWS V14.01,2013-01-23 21:24:00,
2013-01-23 13:29:00,53.4,40.3,29.91,North,0,3.1,3.1,61,0.00,,,0.00,VWS V14.01,2013-01-23 21:29:00,
2013-01-23 13:34:00,53.6,39.6,29.91,NNW,338,2.7,4.0,59,0.00,,,0.00,VWS V14.01,2013-01-23 21:34:00,
2013-01-23 13:39:00,54.0,39.5,29.91,North,0,2.2,3.1,58,0.00,,,0.00,VWS V14.01,2013-01-23 21:39:00,
2013-01-23 13:44:00,54.1,38.8,29.88,ENE,68,4.0,4.0,56,0.00,,,0.00,VWS V14.01,2013-01-23 21:44:00,
2013-01-23 13:49:00,54.3,39.4,29.88,East,90,3.6,3.6,57,0.00,,,0.00,VWS V14.01,2013-01-23 21:49:00,
2013-01-23 13:54:00,53.6,41.3,29.88,North,0,0.0,3.1,63,0.00,,,0.00,VWS V14.01,2013-01-23 21:54:00,
2013-01-23 13:59:00,53.4,41.6,29.91,NNW,338,0.0,4.0,64,0.00,,,0.00,VWS V14.01,2013-01-23 21:59:00,
2013-01-23 14:04:00,53.2,41.4,29.91,NNW,338,0.0,0.0,64,0.00,,,0.00,VWS V14.01,2013-01-23 22:04:00,
2013-01-23 14:09:00,53.1,41.2,29.91,NNE,22,3.6,3.6,64,0.00,,,0.00,VWS V14.01,2013-01-23 22:09:00,
2013-01-23 14:14:00,53.1,42.0,29.91,ENE,68,2.2,2.2,66,0.00,,,0.00,VWS V14.01,2013-01-23 22:14:00,
2013-01-23 14:19:00,53.4,43.1,29.91,NE,45,0.0,0.0,68,0.00,,,0.00,VWS V14.01,2013-01-23 22:19:00,
2013-01-23 14:25:00,53.4,43.1,29.91,NE,45,0.0,0.0,68,0.00,,,0.00,VWS V14.01,2013-01-23 22:25:00,
2013-01-23 14:30:00,53.6,42.5,29.94,South,180,2.2,2.7,66,0.00,,,0.00,VWS V14.01,2013-01-23 22:30:00,
2013-01-23 14:35:00,54.0,42.5,29.94,ESE,112,2.7,2.7,65,0.00,,,0.00,VWS V14.01,2013-01-23 22:35:00,
2013-01-23 14:40:00,54.3,42.4,29.94,SSW,202,3.6,6.3,64,0.00,,,0.00,VWS V14.01,2013-01-23 22:40:00,
2013-01-23 14:45:00,54.3,42.0,29.94,NNE,22,0.0,2.7,63,0.04,,,0.04,VWS V14.01,2013-01-23 22:45:00,
2013-01-23 14:50:00,54.3,41.6,29.94,South,180,0.0,2.7,62,0.04,,,0.04,VWS V14.01,2013-01-23 22:50:00,
2013-01-23 14:55:00,54.3,41.2,29.94,NNE,22,0.0,0.0,61,0.04,,,0.04,VWS V14.01,2013-01-23 22:55:00,
2013-01-23 15:00:00,54.3,40.8,29.94,SW,225,2.2,2.2,60,0.04,,,0.04,VWS V14.01,2013-01-23 23:00:00,
2013-01-23 15:05:00,54.7,41.1,29.94,SSW,202,2.2,2.7,60,0.04,,,0.04,VWS V14.01,2013-01-23 23:05:00,
2013-01-23 15:10:00,54.9,41.2,29.94,SSW,202,2.7,2.7,60,0.04,,,0.04,VWS V14.01,2013-01-23 23:10:00,
2013-01-23 15:15:00,54.9,41.7,29.94,SSW,202,0.0,0.0,61,0.04,,,0.04,VWS V14.01,2013-01-23 23:15:00,
2013-01-23 15:20:00,55.0,43.1,29.94,NE,45,3.1,4.0,64,0.04,,,0.04,VWS V14.01,2013-01-23 23:20:00,
2013-01-23 15:25:00,54.9,44.1,29.94,NNE,22,3.1,3.1,67,0.04,,,0.04,VWS V14.01,2013-01-23 23:25:00,
2013-01-23 15:30:00,54.9,44.5,29.94,NNE,22,2.7,2.7,68,0.04,,,0.04,VWS V14.01,2013-01-23 23:30:00,
2013-01-23 15:35:00,54.5,44.5,29.94,ENE,68,3.1,3.1,69,0.04,,,0.04,VWS V14.01,2013-01-23 23:35:00,
2013-01-23 15:40:00,54.5,44.9,29.94,NNE,22,3.6,3.6,70,0.04,,,0.04,VWS V14.01,2013-01-23 23:40:00,
2013-01-23 15:45:00,54.3,45.1,29.94,NE,45,2.2,2.7,71,0.00,,,0.04,VWS V14.01,2013-01-23 23:45:00,
2013-01-23 15:50:00,54.1,45.3,29.94,NNE,22,4.0,4.0,72,0.00,,,0.04,VWS V14.01,2013-01-23 23:50:00,
2013-01-23 15:55:00,53.8,45.3,29.94,NW,315,5.8,5.8,73,0.00,,,0.04,VWS V14.01,2013-01-23 23:55:00,
2013-01-23 16:00:00,52.9,44.8,29.94,NNE,22,6.3,6.3,74,0.00,,,0.04,VWS V14.01,2013-01-24 00:00:00,
2013-01-23 16:06:00,52.2,44.5,29.94,North,0,5.8,5.8,75,0.00,,,0.04,VWS V14.01,2013-01-24 00:06:00,
2013-01-23 16:11:00,51.8,44.5,29.94,NE,45,0.0,2.7,76,0.00,,,0.04,VWS V14.01,2013-01-24 00:11:00,
2013-01-23 16:16:00,52.0,45.0,29.91,ENE,68,3.6,3.6,77,0.00,,,0.04,VWS V14.01,2013-01-24 00:16:00,
2013-01-23 16:21:00,52.2,45.2,29.91,ENE,68,0.0,0.0,77,0.00,,,0.04,VWS V14.01,2013-01-24 00:21:00,
2013-01-23 16:26:00,52.0,45.0,29.91,ENE,68,4.9,4.9,77,0.00,,,0.04,VWS V14.01,2013-01-24 00:26:00,
2013-01-23 16:31:00,51.6,44.7,29.91,NNE,22,2.7,5.8,77,0.00,,,0.04,VWS V14.01,2013-01-24 00:31:00,
2013-01-23 16:36:00,51.6,45.0,29.91,NNE,22,3.1,5.8,78,0.00,,,0.04,VWS V14.01,2013-01-24 00:36:00,
2013-01-23 16:41:00,51.6,45.0,29.91,NE,45,4.0,4.0,78,0.00,,,0.04,VWS V14.01,2013-01-24 00:41:00,
2013-01-23 16:46:00,51.6,45.0,29.91,NNE,22,3.1,3.1,78,0.00,,,0.04,VWS V14.01,2013-01-24 00:46:00,
2013-01-23 16:51:00,51.8,45.5,29.91,ENE,68,0.0,3.1,79,0.00,,,0.04,VWS V14.01,2013-01-24 00:51:00,
2013-01-23 16:56:00,51.8,45.5,29.91,NNE,22,3.6,4.0,79,0.00,,,0.04,VWS V14.01,2013-01-24 00:56:00,
2013-01-23 17:01:00,51.8,45.5,29.91,SSE,158,2.7,3.1,79,0.00,,,0.04,VWS V14.01,2013-01-24 01:01:00,
2013-01-23 17:06:00,52.0,45.7,29.91,ESE,112,3.1,3.1,79,0.00,,,0.04,VWS V14.01,2013-01-24 01:06:00,
2013-01-23 17:11:00,51.8,45.5,29.91,ESE,112,0.0,2.2,79,0.00,,,0.04,VWS V14.01,2013-01-24 01:11:00,
2013-01-23 17:16:00,51.8,45.5,29.91,North,0,3.1,3.1,79,0.00,,,0.04,VWS V14.01,2013-01-24 01:16:00,
2013-01-23 17:21:00,51.6,46.0,29.91,NNE,22,4.9,4.9,81,0.00,,,0.04,VWS V14.01,2013-01-24 01:21:00,
2013-01-23 17:26:00,51.4,45.8,29.91,North,0,0.0,3.1,81,0.00,,,0.04,VWS V14.01,2013-01-24 01:26:00,
2013-01-23 17:31:00,51.6,46.3,29.94,NNW,338,3.1,3.1,82,0.00,,,0.04,VWS V14.01,2013-01-24 01:31:00,
2013-01-23 17:36:00,51.6,46.0,29.94,North,0,3.1,5.4,81,0.00,,,0.04,VWS V14.01,2013-01-24 01:36:00,
2013-01-23 17:41:00,51.6,46.0,29.94,ENE,68,0.0,2.7,81,0.00,,,0.04,VWS V14.01,2013-01-24 01:41:00,
2013-01-23 17:46:00,51.6,45.7,29.94,East,90,0.0,2.2,80,0.00,,,0.04,VWS V14.01,2013-01-24 01:46:00,
2013-01-23 17:51:00,51.8,45.5,29.94,ESE,112,0.0,2.7,79,0.00,,,0.04,VWS V14.01,2013-01-24 01:51:00,
2013-01-23 17:56:00,51.8,45.2,29.94,ESE,112,0.0,3.6,78,0.00,,,0.04,VWS V14.01,2013-01-24 01:56:00,
2013-01-23 18:01:00,52.0,45.3,29.94,ENE,68,2.7,2.7,78,0.00,,,0.04,VWS V14.01,2013-01-24 02:01:00,
2013-01-23 18:06:00,51.8,44.8,29.94,SE,135,0.0,0.0,77,0.00,,,0.04,VWS V14.01,2013-01-24 02:06:00,
2013-01-23 18:11:00,52.0,45.0,29.94,SSE,158,0.0,0.0,77,0.00,,,0.04,VWS V14.01,2013-01-24 02:11:00,
2013-01-23 18:16:00,52.2,45.2,29.94,South,180,3.6,3.6,77,0.00,,,0.04,VWS V14.01,2013-01-24 02:16:00,
2013-01-23 18:21:00,52.2,45.2,29.94,North,0,3.1,3.6,77,0.00,,,0.04,VWS V14.01,2013-01-24 02:21:00,
2013-01-23 18:27:00,52.3,45.3,29.94,NNE,22,0.0,0.0,77,0.00,,,0.04,VWS V14.01,2013-01-24 02:27:00,
2013-01-23 18:32:00,52.3,45.3,29.91,South,180,0.0,4.0,77,0.00,,,0.04,VWS V14.01,2013-01-24 02:32:00,
2013-01-23 18:37:00,52.5,45.5,29.91,ENE,68,3.6,3.6,77,0.00,,,0.04,VWS V14.01,2013-01-24 02:37:00,
2013-01-23 18:42:00,52.2,45.2,29.91,South,180,0.0,0.0,77,0.00,,,0.04,VWS V14.01,2013-01-24 02:42:00,
2013-01-23 18:47:00,52.0,45.0,29.94,ESE,112,0.0,3.1,77,0.00,,,0.04,VWS V14.01,2013-01-24 02:47:00,
2013-01-23 18:52:00,51.8,44.8,29.94,South,180,0.0,2.2,77,0.00,,,0.04,VWS V14.01,2013-01-24 02:52:00,
2013-01-23 18:57:00,51.8,45.2,29.94,SSE,158,2.2,2.2,78,0.00,,,0.04,VWS V14.01,2013-01-24 02:57:00,
2013-01-23 19:02:00,51.8,45.2,29.91,SSW,202,0.0,0.0,78,0.00,,,0.04,VWS V14.01,2013-01-24 03:02:00,
2013-01-23 19:07:00,51.6,45.0,29.91,South,180,0.0,2.7,78,0.00,,,0.04,VWS V14.01,2013-01-24 03:07:00,
2013-01-23 19:12:00,51.4,45.2,29.91,SSW,202,0.0,0.0,79,0.00,,,0.04,VWS V14.01,2013-01-24 03:12:00,
2013-01-23 19:17:00,51.4,45.2,29.94,SSW,202,0.0,0.0,79,0.00,,,0.04,VWS V14.01,2013-01-24 03:17:00,
2013-01-23 19:22:00,51.4,45.2,29.94,SSW,202,0.0,0.0,79,0.00,,,0.04,VWS V14.01,2013-01-24 03:22:00,
2013-01-23 19:27:00,51.6,45.7,29.94,SE,135,0.0,0.0,80,0.00,,,0.04,VWS V14.01,2013-01-24 03:27:00,
2013-01-23 19:32:00,51.6,45.7,29.94,East,90,0.0,0.0,80,0.00,,,0.04,VWS V14.01,2013-01-24 03:32:00,
2013-01-23 19:37:00,51.6,45.7,29.94,ENE,68,0.0,0.0,80,0.00,,,0.04,VWS V14.01,2013-01-24 03:37:00,
2013-01-23 19:42:00,51.6,45.7,29.94,NNE,22,0.0,0.0,80,0.00,,,0.04,VWS V14.01,2013-01-24 03:42:00,
2013-01-23 19:47:00,51.6,45.7,29.94,ENE,68,0.0,0.0,80,0.00,,,0.04,VWS V14.01,2013-01-24 03:47:00,
2013-01-23 19:52:00,51.8,45.5,29.94,NNE,22,0.0,0.0,79,0.00,,,0.04,VWS V14.01,2013-01-24 03:52:00,
2013-01-23 19:57:00,52.0,46.0,29.94,NE,45,0.0,2.2,80,0.00,,,0.04,VWS V14.01,2013-01-24 03:57:00,
2013-01-23 20:02:00,51.8,45.5,29.94,South,180,0.0,0.0,79,0.00,,,0.04,VWS V14.01,2013-01-24 04:02:00,
2013-01-23 20:07:00,51.6,45.7,29.94,SSE,158,0.0,0.0,80,0.00,,,0.04,VWS V14.01,2013-01-24 04:07:00,
2013-01-23 20:12:00,51.6,45.3,29.97,SSE,158,0.0,0.0,79,0.00,,,0.04,VWS V14.01,2013-01-24 04:12:00,
2013-01-23 20:17:00,51.8,45.5,29.97,NE,45,0.0,2.2,79,0.00,,,0.04,VWS V14.01,2013-01-24 04:17:00,
2013-01-23 20:22:00,51.8,45.5,29.97,NNE,22,2.7,2.7,79,0.00,,,0.04,VWS V14.01,2013-01-24 04:22:00,
2013-01-23 20:27:00,52.0,45.3,29.94,NE,45,0.0,0.0,78,0.00,,,0.04,VWS V14.01,2013-01-24 04:27:00,
2013-01-23 20:33:00,52.0,45.3,29.94,NE,45,0.0,0.0,78,0.00,,,0.04,VWS V14.01,2013-01-24 04:33:00,
2013-01-23 20:38:00,52.0,45.3,29.94,NE,45,0.0,0.0,78,0.00,,,0.04,VWS V14.01,2013-01-24 04:38:00,
2013-01-23 20:43:00,52.0,45.7,29.94,ENE,68,2.7,2.7,79,0.00,,,0.04,VWS V14.01,2013-01-24 04:43:00,
2013-01-23 20:48:00,51.8,45.5,29.94,NE,45,2.2,2.2,79,0.00,,,0.04,VWS V14.01,2013-01-24 04:48:00,
2013-01-23 20:53:00,51.8,45.5,29.94,East,90,2.2,2.2,79,0.00,,,0.04,VWS V14.01,2013-01-24 04:53:00,
2013-01-23 20:58:00,51.6,45.7,29.94,NNE,22,2.7,3.1,80,0.00,,,0.04,VWS V14.01,2013-01-24 04:58:00,
2013-01-23 21:01:00,51.8,45.8,29.94,SE,135,0.0,0.0,80,0.00,,,0.04,VWS V14.01,2013-01-24 05:01:00,
2013-01-23 21:02:00,51.6,45.7,29.94,SE,135,0.0,0.0,80,0.00,,,0.04,VWS V14.01,2013-01-24 05:02:00,
2013-01-23 21:03:00,51.6,45.7,29.94,SE,135,0.0,0.0,80,0.00,,,0.04,VWS V14.01,2013-01-24 05:03:00,
2013-01-23 21:05:00,51.6,45.7,29.94,SE,135,0.0,0.0,80,0.00,,,0.04,VWS V14.01,2013-01-24 05:05:00,
2013-01-23 21:10:00,51.6,45.7,29.94,SE,135,0.0,2.7,80,0.00,,,0.04,VWS V14.01,2013-01-24 05:10:00,
2013-01-23 21:15:00,51.6,46.0,29.94,NNE,22,5.4,5.4,81,0.00,,,0.04,VWS V14.01,2013-01-24 05:15:00,
2013-01-23 21:20:00,51.6,46.0,29.94,South,180,3.6,3.6,81,0.00,,,0.04,VWS V14.01,2013-01-24 05:20:00,
2013-01-23 21:25:00,51.3,45.6,29.94,ENE,68,4.0,4.9,81,0.00,,,0.04,VWS V14.01,2013-01-24 05:25:00,
2013-01-23 21:30:00,51.1,45.8,29.94,ESE,112,2.7,3.6,82,0.00,,,0.04,VWS V14.01,2013-01-24 05:30:00,
2013-01-23 21:35:00,51.3,46.3,29.94,ESE,112,2.2,2.7,83,0.00,,,0.04,VWS V14.01,2013-01-24 05:35:00,
2013-01-23 21:41:00,51.3,46.3,29.94,ESE,112,0.0,0.0,83,0.00,,,0.04,VWS V14.01,2013-01-24 05:41:00,
2013-01-23 21:46:00,51.3,46.3,29.94,NE,45,0.0,3.1,83,0.00,,,0.04,VWS V14.01,2013-01-24 05:46:00,
2013-01-23 21:51:00,51.3,46.3,29.94,ESE,112,0.0,4.0,83,0.00,,,0.04,VWS V14.01,2013-01-24 05:51:00,
2013-01-23 21:56:00,51.4,46.5,29.94,NNW,338,0.0,5.4,83,0.00,,,0.04,VWS V14.01,2013-01-24 05:56:00,
2013-01-23 22:01:00,51.4,46.1,29.94,NE,45,3.1,5.4,82,0.00,,,0.04,VWS V14.01,2013-01-24 06:01:00,
2013-01-23 22:06:00,51.6,46.3,29.94,ESE,112,0.0,0.0,82,0.00,,,0.04,VWS V14.01,2013-01-24 06:06:00,
2013-01-23 22:11:00,51.6,46.3,29.94,NE,45,0.0,0.0,82,0.00,,,0.04,VWS V14.01,2013-01-24 06:11:00,
2013-01-23 22:16:00,51.8,46.5,29.94,NNE,22,0.0,0.0,82,0.00,,,0.04,VWS V14.01,2013-01-24 06:16:00,
2013-01-23 22:21:00,51.8,46.5,29.94,ESE,112,3.6,3.6,82,0.00,,,0.04,VWS V14.01,2013-01-24 06:21:00,
2013-01-23 22:26:00,51.8,46.5,29.94,SSE,158,2.7,2.7,82,0.00,,,0.04,VWS V14.01,2013-01-24 06:26:00,
2013-01-23 22:31:00,51.6,46.3,29.94,SSW,202,2.7,3.1,82,0.00,,,0.04,VWS V14.01,2013-01-24 06:31:00,
2013-01-23 22:36:00,51.8,46.5,29.94,NNE,22,0.0,2.2,82,0.00,,,0.04,VWS V14.01,2013-01-24 06:36:00,
2013-01-23 22:41:00,51.6,46.3,29.94,WSW,248,0.0,0.0,82,0.00,,,0.04,VWS V14.01,2013-01-24 06:41:00,
2013-01-23 22:46:00,51.6,46.6,29.97,SSW,202,2.2,2.2,83,0.00,,,0.04,VWS V14.01,2013-01-24 06:46:00,
2013-01-23 22:52:00,51.8,46.5,29.97,SSW,202,3.1,3.6,82,0.00,,,0.04,VWS V14.01,2013-01-24 06:52:00,
2013-01-23 22:57:00,51.8,46.8,29.97,SE,135,2.2,3.6,83,0.00,,,0.04,VWS V14.01,2013-01-24 06:57:00,
2013-01-23 23:02:00,51.6,46.6,29.97,ENE,68,3.1,3.1,83,0.00,,,0.04,VWS V14.01,2013-01-24 07:02:00,
2013-01-23 23:07:00,51.6,47.0,29.97,ESE,112,4.0,4.0,84,0.00,,,0.04,VWS V14.01,2013-01-24 07:07:00,
2013-01-23 23:12:00,51.6,47.0,29.97,ENE,68,3.6,3.6,84,0.00,,,0.04,VWS V14.01,2013-01-24 07:12:00,
2013-01-23 23:17:00,51.6,47.0,29.94,ENE,68,2.2,3.1,84,0.00,,,0.04,VWS V14.01,2013-01-24 07:17:00,
2013-01-23 23:22:00,51.4,46.8,29.94,NE,45,4.0,4.0,84,0.00,,,0.04,VWS V14.01,2013-01-24 07:22:00,
2013-01-23 23:27:00,51.3,46.6,29.94,ESE,112,3.1,3.1,84,0.00,,,0.04,VWS V14.01,2013-01-24 07:27:00,
2013-01-23 23:32:00,51.3,46.6,29.94,NE,45,0.0,2.7,84,0.00,,,0.04,VWS V14.01,2013-01-24 07:32:00,
2013-01-23 23:37:00,51.3,46.6,29.94,ENE,68,0.0,0.0,84,0.00,,,0.04,VWS V14.01,2013-01-24 07:37:00,
2013-01-23 23:42:00,51.3,46.6,29.94,NE,45,0.0,0.0,84,0.00,,,0.04,VWS V14.01,2013-01-24 07:42:00,
2013-01-23 23:47:00,51.4,46.8,29.94,NNE,22,0.0,2.7,84,0.00,,,0.04,VWS V14.01,2013-01-24 07:47:00,
2013-01-23 23:52:00,51.4,46.8,29.94,NNE,22,0.0,0.0,84,0.00,,,0.04,VWS V14.01,2013-01-24 07:52:00,
2013-01-23 23:57:00,51.4,46.8,29.94,NNE,22,0.0,0.0,84,0.00,,,0.04,VWS V14.01,2013-01-24 07:57:00,